[Date Prev][Date Next][Thread Prev][Thread Next][Date Index][Thread Index]

[jamsat-news:590] jas2info #44


=========================   最新情報   ==============================

        Last updated :Mon,14-July-97 20:10 (JST) #44

===================================================================
   
     衛星情報 FOシリーズの軌道要素、テレメトリ、QSOの状況等をま
   とめてみました.

  1)FO−29(ふじ3号)は7月14日(月)の17:49(JST)の
     パスで17:51から52にかけてデジトーカー運用からJDディジタ
     ルモードの1200bpsの運用に切り替わりました.JARLの通常
     のスケジュール運用となりました. 
    
  ・軌道要素1:「jamsatーkeps:600」より
                SB KEPS @ AMSAT  $ORBS-192.N
                2Line Orbital Elements 192.AMSAT

    HR AMSAT ORBITAL ELEMENTS FOR AMATEUR SATELLITES IN NASA FORMAT
    FROM WA5QGD FORT WORTH,TX July 11, 1997
    SEND SUBSCRIBE/UNSUBSCRIBE TO listserv@amsat.org ONLY
    BID: ORBS-192.N

   DECODE 2-LINE ELSETS WITH THE FOLLOWING KEY:
  1 AAAAAU 00  0  0 BBBBB.BBBBBBBB  .CCCCCCCC  00000-0  00000-00    DDDZ
  2 AAAAA EEE.EEEE FFF.FFFF GGGGGGG HHH.HHHH III.IIII JJ.JJJJJJJJ KKKKKZ

  KEY: A-CATALOGNUM B-EPOCHTIME C-DECAY D-ELSETNUM E-INCLINATION  F-RAAN
  G-ECCENTRICITY H-ARGPERIGEE I-MNANOM J-MNMOTION K-ORBITNUM  Z-CHECKSUM
  
 FO-29
  1 24278U 96046B   97191.07197357 -.00000021  00000-0  11923-4 0   911
  2 24278  98.5378 229.1808 0352238 126.8351 236.5646 13.52631817 44214
  
   ・軌道要素:「jamsatーkeps:601」より
           SB KEPS @ AMSAT  $ORBS-192.O
           Orbital Elements  192.OSCAR

   HR AMSAT ORBITAL ELEMENTS FOR OSCAR SATELLITES
   FROM WA5QGD FORT WORTH,TX July 11, 1997
   SEND SUBSCRIBE/UNSUBSCRIBE TO listserv@amsat.org ONLY
   BID: ORBS-192.O
   TO ALL RADIO AMATEURS BT

  Satellite: FO-29
  Catalog number: 24278
  Epoch time:      97191.07197357
  Element set:      91
  Inclination:       98.5378 deg
  RA of node:       229.1808 deg
  Eccentricity:    0.0352238
  Arg of perigee:   126.8351 deg
  Mean anomaly:     236.5646 deg
  Mean motion:   13.52631817 rev/day
  Decay rate:       -2.1e-07 rev/day^2
  Epoch rev:            4421
  Checksum:              324
 -----------------------------------------------------------
   *FO−29 のFMデジトーカについて
 
  1) [jamsat-bb:2794]にJH1QQN局飯野さんとJH4DHX局
      大谷さんが投稿されてます、JAS−2のデジトーカとQSOに
      ついてご紹介します.
  
      73! de JH1QQN Ken.Iino
      e-mail: jh1qqn@jamsat.or.jp

      私も昨日聞きました、状況は同じです。
      アンテナは9エレ八木の垂直です。
      やはり浅いフエージングでの入感でした。
      LOSするちょっと前に1分程止まりましたが、
      これも仕様なのかなと考えました。
      打ち上げ前に聞かせてもらった感じとほとんど
      同じでした。
      先週はJA6BX(江崎OM)とFO−29でQSOできました。
      快調に働いているようで安心しております。
      来週はデジタル系の運用も予定されているので、
      久しぶりにトライしてみます。
      レポートは後日、それでは。
 ----
      差出人 : 大谷 芳充 <MXL01506@niftyserve.or.jp>
      宛先 : jamsat-bb@jamsat.or.jp
      送信日時 : 1997年 7月 6日 日曜日 9:17
      件名 : [jamsat-bb:2791] JAS-2 DIGITLKR

     JAS−2のディジトーカが、久しぶりに昨日からオンされている
   とアナウンスされていましたので、早速今日の夕方のパス#4358で
   ワッチしてみました.
   「This is JAS-2 カッコー!」とFBなYLさんの声に続いて送信されて
   いました信号は予想時刻どおりにAOSし、周波数は少し高めの435.919
   MHz辺りから入感しだしましたが、TCA付近では信号はかなり強力でした。
   受信は8エレ八木(垂直)を使用した直線偏波系ですが、浅いフェーディ
   ングを伴っていました。余談になりますが、同周波数を暫くワッチしてい
   るとJAS−2からの信号とは知らないらしい局が、カッコーカッコーと
   鳴いているが・・・と話していました。
   これは、ごく一般の設備をもったアマチュア局でも十分に衛星通信が可能
   な状態にあることを端的に示しています。ディジトーカ運用を通して、
   こうした局にこそ衛星通信の面白さがPRできれば、一番効果的ではない
   かと思いながら聞いていました。
   前回のEグイスと同様、大変きれいに聞こえていました。
 JH4DHX/・A HREF="mailto:R ・>R ・/A>蜥J  Jul.5 '97   
---------------------------------------------------------------  
 *FO−29(ふじ3号)の7月14日(月)のJDディジタルモードで運用中の
   テレメトリの一部分です.
    (熊本市)

    AS4480P  14July97
    JST 19:29 ー 19:46         1200bps
    Freq. 435.919 ー901 MHz    USB    RS 59 +10dB
 
 8J1JCS>BEACON [07/14/97  19:38:27]:


 JAS-2    '97/01/06 23:51:07


 9C 03 63 08 00 D6 00 00 02 08


  0 00 03 F3 72 76 60 92 8F B0


  B 52 A8 01 EC AD B1 B1 AF B0



 8J1JCS>BEACON [07/14/97  19:38:28]:D5 02 00 09 00 00 53 40 00 00


 1B 5F 42 37 36 82 85 7C 8A 82


 00 00 00 A4 79 B3 F7 10 00 00


 8J1JCS>BEACON [07/14/97  19:38:29]:


 User not connect.



 8J1JCS>JA0JWS [07/14/97  19:40:10]:


 FO-29/JAS-2 Mailbox ver 1.01


 You can use Mailbox for 10 minutes.


 commands [B/F/H/K/M/Q/R/U/W/Y]


 Use H command for Help


 JAS2>

 8J1JCS>BEACON [07/14/97  19:40:27]:


 JAS-2    '97/01/06 23:53:07


 9C 03 63 08 01 D6 00 01 02 08


 00 00 03 F3 AE 73 5F 92 8F B0


 AA 52 A8 01 EE AD B1 B2 AF B0



 8J1JCS>BEACON [07/14/97  19:40:29]:


 Total 01 user(s)


 Call sign  Remain time


 JA0JWS-0   09:42



 8J1JCS>JA0JWS [07/14/97  19:40:33]:


 Mail not found.


 JAS2>
 
=====================================================================
 2)FO-20(ふじ2号): JAモードの運用で順調に作動しています.
     アナログモードにてのQSOや思わぬDXが楽しめます.

  ・軌道要素1 :出典は「ふじ3号」に同じ.   
 
  FO-20
  1 20480U 90013C   97189.94002539 -.00000031  00000-0  97422-5 0 09807
  2 20480 099.0484 147.4397 0540647 328.2424 028.7092 12.83238551347499

  ・軌道要素2 :出典は「ふじ3号」に同じ.   
 
  Satellite: FO-20
  Catalog number: 20480
  Epoch time:      97189.94002539
  Element set:    0980
  Inclination:      099.0484 deg
  RA of node:       147.4397 deg
  Eccentricity:    0.0540647
  Arg of perigee:   328.2424 deg
  Mean anomaly:     028.7092 deg
  Mean motion:   12.83238551 rev/day
  Decay rate:       -3.1e-07 rev/day^2
  Epoch rev:           34749
  Checksum:              328
  
   ----------------------------------------------------------------
 *FO−20 JAアナログモードでRS 59程度で(受信感度はア
   ンテナより見て約125db)非常に強力な信号で受信できています。
   衛星の現在の状態を符号化し、知らせるビーコン波にのっているテレ
   メトリです.
    
   7月14日(月) JST  14:50 のパスの 一部分です。
   
 AS34814P  14July97   USB   RS 59+10db
 JST 14:50 - 15:06  Freq.435.804 〜 .787MHz 
  
  HI HI 138 148 169 170 285 284 251 262 352 354 354 354 401 435 402 400 500 520 500 500
  HI HI 133 148 168 170 285 284 250 252 353 354 354 354 401 435 402 400 500 520 500 500
  HI HI 132 148 169 170 285 284 253 262 353 354 354 354 401 435 402 400 500 520 500 500 
  HI HI 134 148 170 170 285 284 253 262 353 354 354 354 401 435 402 400 500 520 500 500 
  HI HI 134 148 170 170 285 284 253 262 353 354 354 353 401 435 402 497 500 520 500 500 
  HI HI 138 148 170 170 285 284 243 262 353 353 354 
 -----------------------------------------------------------------------
 *FOー20のJAモードでアナログQSO

   [jamsat-bb:2429]に投稿されたJA6BX局江崎昌男氏のQSOの状況です.

     2/12日の18:02JSTに、UA4NM Kirov の VladさんとFO-20経由でQSO
   しました.
  当方はLOS寸前で、当局のCWでのCQに答えてくれたものですが、FO-20で
  は初めてのUA4です.
  * 後日、江崎氏のコメント:                                  
    昨日QSOできたUA4NMは1987年にAO−10でQSOしていま
  すが、FO−20/29のような低軌道衛星では、昨年のOH5LK以来の
  DXで、大変うれしく思います.
                         73, de JA6BX - Y. Esaki 34122731@people.or.jp 
                                                or, ja6bx@jamsat.or.jp          
=========================   JARL運用情報   =========================

   [jamsatーbb:2790」にJJ1WTK局坂本さんより、JAS−2の運用スケ
   ジュールについて記載されていましたので、ご紹介します.

  JARL Newsの7月号に、FO-29/FO-20の向こう3ケ月分のスケジュールが載ってい
 ました。
     ■ FO-29 ■
      7月  4日(金)	09:13z(18:13j)	デジトーカー
      7月  8日(火)	09:05z(18:05j)	JA
      7月11日(金)	09:51z(18:51j)	JD1200
      7月18日(金)	00:20z(09:20j)	JD9600
      7月25日(金)	09:23z(18:23j)	JA

      8月  1日(金)	08:17z(17:17j)	JD1200
      8月  8日(金)	00:30z(09:30j)	JD9600
      8月15日(金)	01:08z(10:08j)	JA
      8月22日(金)	08:26z(17:26j)	JD1200
      8月29日(金)	00:40z(09:40j)	JD9600

      9月  5日(金)	01:18z(10:18j)	JA
      9月12日(金)	00:13z(09:13j)	JD1200
      9月19日(金)	00:51z(09:51j)	JD9600
      9月26日(金)	08:09z(17:09j)	JA

*切替時刻はUTCで表示しています.カッコ内の時刻は
   日本時間JSTです.

   JA:アナログ系運用
   JD:ディジタル系運用
       *1200bps PSK   メールボックス運用(SSB)
       *9600bps FSK   メールボックス運用(FM)
       *デジトーカ         FM音声メッセージ送信

        ■ ふじ2号 ■
    「ふじ2号」はアナログ系の連続運用とします.   
                                               
   =============   JAS-2 (ふじ3号)と現在までの情報   ===========
  
  A.電話によるふじ3号の運用情報
      社団法人日本アマチュア連盟によるサービス
           TEL .   03− 3942 − 1000
   
  B.アマチュア無線FAXサービス
      JARLによるふじ3号の軌道情報(オービットカレンダー)
         FAX No.  03− 3233 −0055 

  C.WWWブラウザで情報を簡単に見れる人のためにJAS−2
     ふじ3号の衛星としての運用されるまでの名前)の概要、打ち上げ
     までの状況、運用中における状況を説明したホームページを紹介し
     ておきます.

    1)社団法人日本アマチュア無線連盟(JARL)のホームページ
          http://www.jarl.or.jp/

    2)宇宙開発事業団(NASDA)ホームページ 
          http://www.nasda.go.jp/
         打上げ衛星 :地球観測プラットフォーム技術衛星(ADEOS) 
                       アマチュア衛星3号(JAS-2)
          http://yyy.tksc.nasda.go.jp/Home/Press/Press-j/jas-2_j.html
                                                       
  D.JAMSATによる軌道情報の活用
        JAMSATのホームページまたはjamsat−kepsの軌道要素より
      衛星の軌道情報を得る.
      
     JAMSATホームページURL    http://www.jamsat.or.jp

       上記ホームページでは各地で行われるアマチュア衛星に関する
      ミューティングのお知らせや世界のアマチュア衛星に関する情報が
      満載されています.
   -------------------------------------------------------------------
      JAMSATのメンバーのご協力によりJH6MME(高山 秀造)が
    執筆・編集を担当しております.ご指摘の意見、疑問やこのようにしたら
    というアイデアがありましたら小さなことでもかまいませんので気軽に下
    記アドレスまでご連絡ください.jamsat−newsからjas2
    infoへの転載をJH4PHW局坂井さんに担当して頂いております.
                Eーmail :   jh6mme@jamsat.or.jp : jh4phw@jamsat.or.jp             
  ==============================   END  ============================